Location: Gazon
(48.1318°N, 1.2708°W)
Time: 22:12:06
(UTC+00:00)

SJ-6B - Pass Details

Date: 18 September 2020
Orbit: 511 x 580 km, 97.6° (Epoch: 25 October)

Event Time Altitude Azimuth Distance (km) Brightness Sun altitude
Exits shadow 19:21:26 16° 138° (SE) 1,406 4.4 -12.5°
Maximum altitude 19:24:08 43° 71° (ENE) 734 3.1 -12.9°
Drops below altitude 10° 19:27:43 10° 359° (N) 1,755 5.6 -13.5°
Sets 19:29:53 0° 353° (N) 2,655 6.7 -13.8°
